Stations météo

réclame
Mon MeteoGroup
Bilbao/Aeropuerto, Espagne (8025): Température de l'air & dewpoint: 19.02.2018 18:00:00 - 25.02.2018 18:00:00 (CET)Bilbao/Aeropuerto, Espagne (8025): Vitesse du vent: 19.02.2018 18:00:00 - 25.02.2018 18:00:00 (CET)Bilbao/Aeropuerto, Espagne (8025): Direction du vent: 19.02.2018 18:00:00 - 25.02.2018 18:00:00 (CET)Bilbao/Aeropuerto, Espagne (8025): reduced air pressure: 19.02.2018 18:00:00 - 25.02.2018 18:00:00 (CET)Bilbao/Aeropuerto, Espagne (8025): visibility: 19.02.2018 18:00:00 - 25.02.2018 18:00:00 (CET)
Date & Time tt [°C] td [°C] ff [km/h] ff [knt] dd ppp [hPa] vv [km]
25.02.2018 18:00:00 8,5 3,3 13 7 NNW 1015,1 -
25.02.2018 17:00:00 10,0 4,1 15 8 NNW 1014,5 -
25.02.2018 16:00:00 11,7 4,7 15 8 WNW 1014,0 10
25.02.2018 15:00:00 11,7 5,2 13 7 WNW 1014,0 -
25.02.2018 14:00:00 11,9 3,1 5 3 W 1014,2 -
25.02.2018 13:00:00 10,9 3,4 5 3 ENE 1014,9 10
25.02.2018 12:00:00 9,2 3,2 0 0 N 1014,9 -
25.02.2018 11:00:00 6,3 2,3 4 2 ESE 1015,0 -
25.02.2018 10:00:00 2,8 0,6 9 5 E 1015,1 8
25.02.2018 09:00:00 0,2 -1,1 5 3 E 1015,0 -
25.02.2018 08:00:00 -0,6 -1,6 9 5 ESE 1014,5 -
25.02.2018 07:00:00 -1,1 -2,1 9 5 ESE 1014,1 12
25.02.2018 06:00:00 -0,6 -1,6 8 4 E 1013,9 -
25.02.2018 05:00:00 -0,3 -1,3 5 3 ESE 1013,6 -
25.02.2018 04:00:00 0,1 -1,1 8 4 ENE 1013,5 -
25.02.2018 03:00:00 0,3 -0,8 8 4 E 1013,6 -
25.02.2018 02:00:00 0,5 -1,0 8 4 E 1013,6 -
25.02.2018 01:00:00 0,9 -0,6 9 5 E 1013,3 -
25.02.2018 00:00:00 1,4 -0,2 8 4 E 1012,7 -
24.02.2018 23:00:00 1,8 -0,1 5 3 ESE 1013,0 -
24.02.2018 22:00:00 2,9 0,3 8 4 ESE 1012,5 15
24.02.2018 21:00:00 4,3 0,4 0 0 N 1012,2 -
24.02.2018 20:00:00 5,0 0,4 5 3 SE 1012,1 -
24.02.2018 19:00:00 6,0 0,7 9 5 E 1011,3 20
24.02.2018 18:00:00 7,3 1,0 13 7 NE 1010,7 -
24.02.2018 17:00:00 8,8 2,0 11 6 N 1010,0 -
24.02.2018 16:00:00 9,8 2,6 15 8 WNW 1009,4 20
24.02.2018 15:00:00 9,6 0,4 8 4 W 1009,4 -
24.02.2018 14:00:00 8,2 -0,1 5 3 NNE 1009,8 -
24.02.2018 13:00:00 7,3 -0,5 4 2 S 1010,2 20
24.02.2018 12:00:00 7,0 -0,8 5 3 S 1010,6 -
24.02.2018 11:00:00 5,5 -1,0 8 4 S 1010,8 -
24.02.2018 10:00:00 5,0 -1,5 5 3 S 1010,2 20
24.02.2018 09:00:00 4,3 -1,4 4 2 SE 1009,8 -
24.02.2018 08:00:00 4,0 -1,5 4 2 SE 1009,4 -
24.02.2018 07:00:00 4,0 -0,8 0 0 N 1009,3 20
24.02.2018 06:00:00 4,0 0,1 8 4 E 1009,1 -
24.02.2018 05:00:00 4,1 -0,1 4 2 E 1008,9 -
24.02.2018 04:00:00 4,2 0,3 4 2 E 1009,0 -
24.02.2018 03:00:00 4,3 1,0 4 2 ESE 1009,2 -
24.02.2018 02:00:00 4,3 0,8 4 2 E 1009,0 -
24.02.2018 01:00:00 4,3 1,0 4 2 ESE 1009,3 -
24.02.2018 00:00:00 4,6 0,6 2 1 ENE 1009,4 -
23.02.2018 23:00:00 4,9 0,3 2 1 NE 1009,6 -
23.02.2018 22:00:00 4,9 0,5 0 0 N 1009,9 15
23.02.2018 21:00:00 5,2 0,2 5 3 ENE 1009,9 -
23.02.2018 20:00:00 5,6 0,2 5 3 ESE 1009,8 -
23.02.2018 19:00:00 6,0 1,3 8 4 E 1009,6 15
23.02.2018 18:00:00 - - - - - - -
23.02.2018 17:00:00 6,4 0,3 9 5 NNE 1009,5 -
23.02.2018 16:00:00 6,9 0,4 8 4 N 1009,7 20
23.02.2018 15:00:00 7,2 0,4 11 6 N 1010,0 -
23.02.2018 14:00:00 7,3 -0,3 9 5 N 1010,6 -
23.02.2018 13:00:00 6,9 -0,6 13 7 N 1011,3 20
23.02.2018 12:00:00 7,5 1,3 2 1 ENE 1011,7 -
23.02.2018 11:00:00 6,0 1,9 5 3 W 1012,1 -
23.02.2018 10:00:00 3,5 0,4 2 1 ESE 1012,4 15
23.02.2018 09:00:00 0,9 -0,6 8 4 ESE 1012,4 -
23.02.2018 08:00:00 0,7 -0,8 9 5 E 1012,3 -
23.02.2018 07:00:00 0,6 -0,7 8 4 ESE 1012,4 15
23.02.2018 06:00:00 0,2 -0,9 5 3 E 1012,1 -
23.02.2018 05:00:00 0,1 -1,0 5 3 E 1012,0 -
23.02.2018 04:00:00 0,4 -0,9 9 5 E 1012,5 -
23.02.2018 03:00:00 0,7 -0,7 8 4 E 1012,9 -
23.02.2018 02:00:00 0,7 -0,8 4 2 ESE 1013,2 -
23.02.2018 01:00:00 0,7 -0,8 8 4 E 1013,7 -
23.02.2018 00:00:00 1,1 -0,8 8 4 ESE 1014,0 -
22.02.2018 23:00:00 1,7 -0,9 4 2 E 1014,3 -
22.02.2018 22:00:00 2,1 -0,7 4 2 ESE 1014,5 20
22.02.2018 21:00:00 2,8 -0,4 5 3 ESE 1014,5 -
22.02.2018 20:00:00 5,0 -0,8 4 2 WNW 1014,4 -
22.02.2018 19:00:00 6,3 -1,3 8 4 NNW 1014,3 20
22.02.2018 18:00:00 7,5 -1,4 11 6 NNW 1014,1 -
22.02.2018 17:00:00 8,3 -2,0 9 5 NNE 1014,2 -
22.02.2018 16:00:00 7,9 -1,4 15 8 N 1014,4 20
22.02.2018 15:00:00 8,0 -1,3 18 10 N 1014,7 -
22.02.2018 14:00:00 8,3 -0,7 15 8 N 1015,0 -
22.02.2018 13:00:00 8,2 0,2 18 10 N 1015,6 15
22.02.2018 12:00:00 7,3 -0,3 16 9 NNE 1016,1 -
22.02.2018 11:00:00 7,3 0,1 11 6 N 1016,2 -
22.02.2018 10:00:00 6,5 0,3 8 4 N 1016,1 15
22.02.2018 09:00:00 5,6 0,8 9 5 N 1016,0 -
22.02.2018 08:00:00 5,3 0,2 8 4 NNW 1015,6 -
22.02.2018 07:00:00 5,4 0,5 5 3 NNW 1015,8 15
22.02.2018 06:00:00 5,7 0,2 8 4 N 1015,8 -
22.02.2018 05:00:00 6,0 0,9 0 0 N 1015,7 -
22.02.2018 04:00:00 6,1 0,9 5 3 NE 1016,0 -
22.02.2018 03:00:00 6,1 1,2 9 5 NE 1016,4 -
22.02.2018 02:00:00 6,5 1,6 11 6 ENE 1016,7 -
22.02.2018 01:00:00 6,4 1,9 8 4 NNW 1016,9 -
22.02.2018 00:00:00 6,0 1,9 8 4 WNW 1017,4 -
21.02.2018 23:00:00 6,5 0,5 9 5 NNW 1018,0 -
21.02.2018 22:00:00 6,5 1,0 9 5 N 1018,5 15
21.02.2018 21:00:00 5,8 1,7 8 4 NNW 1018,5 -
21.02.2018 20:00:00 6,0 1,5 8 4 N 1018,4 -
21.02.2018 19:00:00 6,7 1,4 11 6 N 1018,0 15
21.02.2018 18:00:00 7,8 1,0 16 9 N 1017,8 -
21.02.2018 17:00:00 9,0 0,5 13 7 NNE 1017,6 -
21.02.2018 16:00:00 9,4 0,7 16 9 NE 1017,5 25
21.02.2018 15:00:00 9,3 0,8 22 12 NNE 1017,7 -
21.02.2018 14:00:00 8,4 0,9 28 15 NE 1017,9 -
21.02.2018 13:00:00 8,8 2,8 26 14 NE 1018,4 20
21.02.2018 12:00:00 7,9 3,9 13 7 NNE 1019,2 -
21.02.2018 11:00:00 7,6 3,9 21 11 NE 1019,3 -
21.02.2018 10:00:00 7,4 4,8 13 7 NNW 1019,1 20
21.02.2018 09:00:00 6,6 4,1 26 14 N 1019,4 -
21.02.2018 08:00:00 8,1 3,0 18 10 N 1018,6 -
21.02.2018 07:00:00 7,8 3,3 13 7 NNW 1018,8 15
21.02.2018 06:00:00 7,4 2,8 22 12 N 1019,0 -
21.02.2018 05:00:00 9,0 2,5 21 11 N 1019,4 -
21.02.2018 04:00:00 9,1 2,9 24 13 N 1019,4 -
21.02.2018 03:00:00 9,0 6,4 31 17 N 1019,5 -
21.02.2018 02:00:00 9,6 7,3 22 12 NNW 1019,1 -
21.02.2018 01:00:00 10,1 8,0 21 11 N 1019,9 -
21.02.2018 00:00:00 9,7 8,5 11 6 NNW 1020,3 -
20.02.2018 23:00:00 10,7 8,1 13 7 NNW 1020,9 -
20.02.2018 22:00:00 10,8 8,0 13 7 NNW 1021,6 12
20.02.2018 21:00:00 10,9 8,3 16 9 NNW 1021,9 -
20.02.2018 20:00:00 11,1 8,3 18 10 NNW 1022,3 -
20.02.2018 19:00:00 11,1 8,3 21 11 NNW 1022,4 12
20.02.2018 18:00:00 11,3 8,2 22 12 NW 1022,4 -
20.02.2018 17:00:00 11,7 8,5 26 14 NNW 1022,2 -
20.02.2018 16:00:00 12,0 8,4 22 12 N 1021,9 12
20.02.2018 15:00:00 12,1 9,4 24 13 NNW 1022,2 -
20.02.2018 14:00:00 12,0 9,7 29 16 NW 1022,6 -
20.02.2018 13:00:00 12,3 9,2 26 14 NW 1022,8 12
20.02.2018 12:00:00 11,7 9,3 22 12 NW 1022,9 -
20.02.2018 11:00:00 11,4 9,3 18 10 NNW 1023,2 -
20.02.2018 10:00:00 11,1 9,2 21 11 NW 1022,8 8
20.02.2018 09:00:00 11,1 9,0 21 11 NW 1022,4 -
20.02.2018 08:00:00 10,9 8,8 21 11 NW 1022,1 -
20.02.2018 07:00:00 10,8 8,7 16 9 NW 1021,8 8
20.02.2018 06:00:00 10,9 9,0 22 12 NNW 1021,8 -
20.02.2018 05:00:00 10,6 9,5 18 10 NW 1021,6 -
20.02.2018 04:00:00 10,8 9,4 18 10 NW 1021,5 -
20.02.2018 03:00:00 10,9 9,6 18 10 NNW 1021,6 -
20.02.2018 02:00:00 11,1 9,8 26 14 NNW 1021,5 -
20.02.2018 01:00:00 11,0 9,9 22 12 NNW 1021,4 -
20.02.2018 00:00:00 11,2 10,4 16 9 NNW 1021,3 -
19.02.2018 23:00:00 11,4 10,1 18 10 N 1021,5 -
19.02.2018 22:00:00 11,4 10,3 24 13 NNW 1021,5 5
19.02.2018 21:00:00 11,4 10,3 18 10 NNW 1021,2 -
19.02.2018 20:00:00 11,3 10,5 16 9 NW 1021,1 -
19.02.2018 19:00:00 11,4 10,5 15 8 NW 1021,2 5
19.02.2018 18:00:00 11,3 10,5 18 10 NW 1021,0 -

tt = Température de l'air
td = dewpoint
ff = Vitesse du vent
dd = Direction du vent
ppp = reduced air pressure
vv = visibility

stations d'obs. à proximité